Location: Macksville High School
(37.9611°N, 99.9654°W)
Time: 14:14:42
(UTC+00:00)

FENGYUN 3A - Pass Details

Date: 27 February 2020
Orbit: 824 x 836 km, 98.4° (Epoch: 29 March)

Event Time Altitude Azimuth Distance (km) Brightness Sun altitude
Rises 12:00:10 0° 10° (N) 3,393 7.0 -15.5°
Reaches altitude 10° 12:02:32 10° 9° (N) 2,455 6.2 -15.0°
Maximum altitude 12:07:58 76° 285° (WNW) 865 3.6 -14.0°
Drops below altitude 10° 12:13:22 10° 201° (SSW) 2,435 5.9 -12.9°
Sets 12:15:42 0° 199° (SSW) 3,364 6.6 -12.4°
